[[{"header":{"parameterUnit":"m.s-1","parameterCategory":1,"la1":30.2991,"la2":30.254,"lo1":-89.0895,"lo2":-89.0444,"dy":0.0017,"dx":0.0017,"nx":28,"ny":28,"refTime":"2025-04-16T03:00:00:Z","depth":0,"parameterNumber":2,"parameterNumberName":"U-component_of_WINDS"},"data":[0,0,0,0,0,0,0,0,0,0,0,0,0,0,0,0,0,0,0,0,0,0,0,0,0,0,0,0,0,0,0,0,0,0,0,0,0,0,0,0,0,0,0,0,0,0,0,0,0,0,0,0,0,0,0,0,0,0,-2.9652,-2.9652,0,-2.9669,-2.9669,-2.9669,-2.9654,-2.9654,-2.9653,-2.9652,-2.9669,-2.967,-2.9671,0,0,0,0,0,0,0,0,0,0,0,0,0,-2.9608,-2.9609,-2.9652,-2.9652,-2.9653,-2.9669,-2.9669,-2.9669,-2.9654,-2.9654,-2.9653,-2.9652,-2.9669,-2.967,-2.9671,0,0,0,0,0,0,0,0,0,0,0,0,0,-2.9626,-2.9609,-2.9652,-2.9647,-2.9647,-2.9669,-2.9669,-2.9669,-2.9654,-2.9654,-2.9653,-2.9652,-2.9669,-2.967,-2.9672,-2.9699,0,0,-2.9676,-2.9677,0,0,0,0,0,0,0,0,-2.9625,-2.9628,-2.9648,-2.9647,-2.9647,-2.9659,-2.966,-2.968,-2.9655,-2.9652,-2.9652,-2.9651,-2.9666,-2.9668,-2.9673,-2.97,-2.9701,-2.9676,-2.9677,-2.9678,-2.9678,0,0,0,0,0,0,0,-2.9624,-2.9627,-2.9659,-2.9648,-2.9648,-2.9644,-2.9646,-2.9663,-2.9664,-2.9652,-2.9651,-2.9653,-2.9666,-2.9672,-2.9674,-2.9701,-2.9676,-2.9678,-2.9679,-2.9679,-2.9753,-2.9754,0,0,0,0,0,0,-2.9623,-2.9626,-2.9658,-2.9659,-2.9634,-2.9646,-2.9648,-2.9656,-2.9664,-2.9664,-2.9654,-2.9652,-2.967,-2.9672,-2.9674,-2.9707,-2.9678,-2.9679,-2.968,-2.9752,-2.9753,-2.9754,0,0,0,0,0,0,-2.9622,-2.9626,-2.9658,-2.9642,-2.9646,-2.9648,-2.9657,-2.9657,-2.9662,-2.9665,-2.9665,-2.9659,-2.9669,-2.9672,-2.9693,-2.9708,-2.968,-2.9681,-2.9751,-2.9752,-2.9754,-2.9774,0,0,0,0,0,0,-2.9621,-2.9626,-2.9636,-2.9643,-2.9647,-2.9676,-2.9658,-2.9658,-2.9665,-2.9663,-2.967,-2.9671,-2.9668,-2.9691,-2.9695,-2.9709,-2.9683,-2.9749,-2.9751,-2.9753,-2.9772,-2.9776,-2.9779,0,0,0,0,0,-2.962,-2.9641,-2.9637,-2.9641,-2.966,-2.9677,-2.968,-2.9677,-2.9666,-2.9677,-2.9679,-2.967,-2.9706,-2.9694,-2.9698,-2.9713,-2.9748,-2.9751,-2.9753,-2.977,-2.9775,-2.9779,0,0,0,0,0,0,-2.9636,-2.9642,-2.9637,-2.9661,-2.9669,-2.9675,-2.9688,-2.9682,-2.9692,-2.969,-2.9686,-2.9688,-2.9711,-2.9714,-2.97,-2.9741,-2.9725,-2.9729,-2.9737,-2.9742,-2.9745,-2.9744,-2.9684,0,0,0,0,0,-2.9642,-2.9656,-2.966,-2.9681,-2.9685,-2.9686,-2.9693,-2.9691,-2.9698,-2.9701,-2.9705,-2.9713,-2.9726,-2.9734,-2.9746,-2.9773,-2.9774,-2.9785,-2.9789,-2.9792,-2.9795,-2.9809,-2.9814,-2.9762,-2.9762,-2.9762,0,0,-2.9655,-2.966,-2.9669,-2.9685,-2.969,-2.9704,-2.9689,-2.9704,-2.9715,-2.9704,-2.9724,-2.9727,-2.9736,-2.976,-2.9771,-2.9764,-2.981,-2.9795,-2.9798,-2.9798,-2.9812,-2.9817,-2.9822,-2.9763,-2.9763,-2.9763,0,0,-2.9686,-2.9692,-2.971,-2.9716,-2.9725,-2.9725,-2.973,-2.9737,-2.9739,-2.9759,-2.9752,-2.9765,-2.9787,-2.9793,-2.98,-2.9835,-2.9828,-2.984,-2.9858,-2.9873,-2.9877,-2.988,-2.9893,-2.9897,-2.9842,-2.9842,-2.9842,0,-2.9701,-2.9722,-2.972,-2.9736,-2.9743,-2.9735,-2.9754,-2.976,-2.9772,-2.9777,-2.9769,-2.9798,-2.9803,-2.9829,-2.9838,-2.9843,-2.9848,-2.9838,-2.9876,-2.988,-2.9883,-2.9895,-2.99,-2.9844,-2.9843,-2.9843,-2.9843,0,-2.974,-2.9755,-2.9769,-2.9781,-2.979,-2.9808,-2.9808,-2.9818,-2.9815,-2.9817,-2.9838,-2.9845,-2.9858,-2.9864,-2.9861,-2.989,-2.9885,-2.9877,-2.9861,-2.989,-2.9901,-2.9905,-2.9845,-2.9845,-2.9845,-2.9844,0,0,-2.978,-2.9792,-2.9797,-2.9803,-2.9813,-2.9824,-2.9842,-2.9855,-2.9864,-2.9873,-2.9888,-2.9908,-2.99,-2.9908,-2.9906,-2.9919,-2.9946,-2.9909,-2.9909,-2.9915,-2.9978,-2.9984,-2.9989,-2.9942,-2.9943,-2.9944,-2.9977,0,-2.9811,-2.9841,-2.984,-2.9868,-2.9882,-2.9875,-2.9891,-2.9899,-2.9901,-2.9914,-2.9917,-2.9931,-2.992,-2.9924,-2.9937,-2.994,-2.9959,-2.9938,-2.9955,-2.9956,-2.9952,-2.9994,-3.0,-3.0031,-2.9982,-2.9982,-2.9983,0,-2.9851,-2.9862,-2.9891,-2.99,-2.9906,-2.992,-2.9932,-2.9944,-2.9954,-2.9955,-2.9964,-2.996,-2.9978,-2.9964,-2.9989,-2.9975,-2.9982,-2.9985,-2.9987,-2.9987,-2.997,-2.9995,-3.0041,-3.0045,-2.999,-2.9989,-2.9989,0,-2.9876,-2.9899,-2.9919,-2.9925,-2.9935,-2.9945,-2.995,-2.9959,-2.9967,-2.9979,-2.9984,-2.9998,-3.0005,-3.0016,-3.0016,-3.0005,-3.0042,-3.0027,-3.0043,-3.0043,-3.0049,-3.0048,-3.0096,-3.0056,-3.0056,-3.0056,-3.0056,0,-2.991,-2.9928,-2.9931,-2.9943,-2.9964,-2.9963,-2.9984,-2.9988,-2.9996,-3.0009,-3.0005,-3.0018,-3.0018,-3.0031,-3.0032,-3.0053,-3.0056,-3.0058,-3.0057,-3.0057,-3.0057,-3.0061,-3.0059,-3.0057,-3.0057,-3.0057,-3.0056,0,-2.9941,-2.9944,-2.9965,-2.9975,-2.9977,-2.9992,-3.0,-3.0012,-3.0015,-3.0032,-3.0036,-3.0041,-3.0056,-3.0058,-3.0076,-3.0077,-3.0102,-3.01,-3.0098,-3.0098,-3.0113,-3.0111,-3.0163,-3.017,-3.0127,-3.0127,-3.0128,0,-2.9962,-2.9976,-2.9987,-2.9995,-3.0001,-3.0015,-3.0024,-3.0025,-3.0034,-3.0047,-3.0058,-3.0073,-3.0085,-3.011,-3.0115,-3.0129,-3.0127,-3.0144,-3.0129,-3.0129,-3.0126,-3.0125,-3.0126,-3.0147,-3.0147,-3.0148,-3.0148,0,-2.9999,-3.0,-3.0012,-3.0026,-3.0037,-3.0047,-3.0057,-3.0065,-3.0067,-3.0078,-3.0094,-3.0103,-3.0123,-3.0138,-3.0152,-3.0157,-3.0153,-3.0153,-3.0157,-3.0157,-3.0155,-3.0156,-3.0105,-3.0152,-3.0151,-3.0151,-3.0151,-3.0151,-3.0025,-3.0037,-3.0047,-3.0061,-3.0069,-3.0079,-3.0091,-3.0096,-3.0109,-3.0125,-3.0125,-3.0142,-3.0152,-3.0171,-3.0178,-3.0192,-3.0186,-3.0192,-3.0194,-3.0195,-3.0196,-3.0154,-3.0194,-3.0194,-3.0194,-3.0194,-3.0194,0,-3.0061,-3.0067,-3.0081,-3.0095,-3.0107,-3.0103,-3.0114,-3.0124,-3.014,-3.0149,-3.0162,-3.0181,-3.0196,-3.0202,-3.0217,-3.0227,-3.0226,-3.0231,-3.023,-3.0231,-3.0201,-3.0195,-3.0232,-3.0232,-3.0232,-3.0232,-3.0232,-3.0232,-3.0081,-3.0101,-3.0104,-3.0128,-3.0134,-3.0152,-3.0158,-3.0168,-3.0176,-3.0197,-3.0209,-3.0214,-3.0223,-3.0238,-3.0252,-3.0254,-3.0259,-3.0265,-3.0266,-3.0237,-3.0233,-3.023,-3.0224,-3.0267,-3.0267,-3.0295,-3.0296,-3.0296]},{"header":{"parameterUnit":"m.s-1","parameterCategory":1,"la1":30.2991,"la2":30.254,"lo1":-89.0895,"lo2":-89.0444,"dy":0.0017,"dx":0.0017,"nx":28,"ny":28,"refTime":"2025-04-16T03:00:00:Z","depth":0,"parameterNumber":3,"parameterNumberName":"V-component_of_WINDS"},"data":[0,0,0,0,0,0,0,0,0,0,0,0,0,0,0,0,0,0,0,0,0,0,0,0,0,0,0,0,0,0,0,0,0,0,0,0,0,0,0,0,0,0,0,0,0,0,0,0,0,0,0,0,0,0,0,0,0,0,5.2934,5.2934,0,5.2925,5.2925,5.2925,5.2912,5.2912,5.2912,5.2911,5.2898,5.2898,5.2898,0,0,0,0,0,0,0,0,0,0,0,0,0,5.294,5.294,5.2934,5.2934,5.2934,5.2925,5.2925,5.2925,5.2912,5.2912,5.2912,5.2911,5.2898,5.2898,5.2897,0,0,0,0,0,0,0,0,0,0,0,0,0,5.2934,5.294,5.2934,5.2927,5.2926,5.2925,5.2925,5.2925,5.2912,5.2912,5.2911,5.2911,5.2898,5.2898,5.2897,5.2902,0,0,5.2897,5.2897,0,0,0,0,0,0,0,0,5.2935,5.2934,5.2928,5.2927,5.2927,5.2919,5.2922,5.2917,5.2912,5.2917,5.2911,5.2911,5.2905,5.2904,5.2903,5.2901,5.29,5.2897,5.2896,5.2896,5.2896,0,0,0,0,0,0,0,5.2935,5.2934,5.293,5.2928,5.2927,5.2923,5.2922,5.2921,5.2913,5.2917,5.2916,5.2915,5.2904,5.2903,5.2902,5.29,5.2897,5.2896,5.2896,5.2896,5.2903,5.2903,0,0,0,0,0,0,5.2937,5.2935,5.2931,5.293,5.293,5.2923,5.2922,5.2922,5.2913,5.2911,5.2915,5.2915,5.2904,5.2903,5.2902,5.2907,5.2896,5.2896,5.2896,5.2903,5.2903,5.2903,0,0,0,0,0,0,5.2937,5.2937,5.2931,5.2932,5.2931,5.2924,5.2923,5.2922,5.2921,5.2912,5.291,5.2916,5.2903,5.2902,5.2902,5.2907,5.2896,5.2896,5.2902,5.2903,5.2903,5.2917,0,0,0,0,0,0,5.2937,5.2937,5.2939,5.2933,5.2931,5.2933,5.2924,5.2922,5.2921,5.2919,5.2912,5.291,5.2903,5.2903,5.2902,5.2906,5.2896,5.2902,5.2902,5.2903,5.2916,5.2918,5.292,0,0,0,0,0,5.2938,5.2942,5.2939,5.2938,5.2934,5.2933,5.2932,5.2925,5.2921,5.2923,5.2917,5.291,5.2906,5.2903,5.2902,5.2906,5.2901,5.2902,5.2903,5.2916,5.2918,5.292,0,0,0,0,0,0,5.2947,5.2941,5.2937,5.294,5.2938,5.2931,5.2933,5.2928,5.2925,5.2924,5.2914,5.2913,5.2914,5.291,5.2906,5.291,5.2903,5.2903,5.2913,5.2915,5.2917,5.2918,5.2895,0,0,0,0,0,5.295,5.2951,5.2945,5.2948,5.2947,5.294,5.2939,5.2935,5.2931,5.2929,5.2923,5.2919,5.2917,5.2916,5.2913,5.2916,5.2914,5.2918,5.292,5.2921,5.2922,5.2924,5.2926,5.2906,5.2906,5.2906,0,0,5.2955,5.2952,5.2952,5.295,5.2947,5.2947,5.2939,5.2939,5.2939,5.2929,5.2929,5.2925,5.2919,5.2922,5.2922,5.2918,5.2927,5.2922,5.2924,5.2923,5.2925,5.2927,5.2929,5.2906,5.2906,5.2906,0,0,5.2965,5.2962,5.2965,5.2963,5.296,5.2956,5.2956,5.2951,5.2948,5.2949,5.2941,5.2941,5.2937,5.2934,5.2932,5.2943,5.2936,5.2942,5.2951,5.2953,5.2955,5.2956,5.2961,5.2962,5.2943,5.2943,5.2943,0,5.2971,5.2972,5.2967,5.2968,5.2968,5.296,5.2963,5.2961,5.2956,5.2955,5.2951,5.2948,5.2944,5.2945,5.2948,5.2946,5.2947,5.2943,5.2955,5.2956,5.2958,5.2962,5.2963,5.2944,5.2944,5.2943,5.2943,0,5.2981,5.2982,5.2984,5.2982,5.2982,5.2984,5.2978,5.2978,5.2974,5.297,5.2972,5.2966,5.2964,5.2964,5.2958,5.2965,5.2963,5.2957,5.2949,5.296,5.2964,5.2966,5.2945,5.2944,5.2944,5.2944,0,0,5.2995,5.2991,5.2992,5.2992,5.2989,5.2989,5.2991,5.299,5.299,5.2987,5.2989,5.2987,5.2983,5.298,5.2975,5.2977,5.2987,5.2971,5.2971,5.2975,5.2995,5.2999,5.3001,5.2983,5.2983,5.2984,5.2995,0,5.3004,5.3008,5.3004,5.3009,5.301,5.3004,5.3006,5.3004,5.3,5.3001,5.2996,5.2996,5.2989,5.2988,5.299,5.2986,5.2991,5.2985,5.2984,5.2984,5.2986,5.3003,5.3007,5.3018,5.2997,5.2997,5.2997,0,5.3015,5.3015,5.3021,5.3019,5.3019,5.3021,5.302,5.302,5.3018,5.3015,5.3014,5.3009,5.301,5.3004,5.3005,5.3001,5.3001,5.2999,5.2999,5.2999,5.2991,5.3003,5.3022,5.3023,5.2999,5.2999,5.2999,0,5.3025,5.3027,5.3031,5.303,5.3028,5.303,5.3028,5.3026,5.3026,5.3025,5.3025,5.3024,5.3023,5.3022,5.3016,5.3012,5.3019,5.3011,5.3017,5.3017,5.3018,5.3018,5.3038,5.3018,5.3018,5.3018,5.3018,0,5.3036,5.304,5.3036,5.3038,5.3042,5.3038,5.3042,5.304,5.3038,5.3039,5.3033,5.3035,5.3027,5.3028,5.3023,5.3026,5.3026,5.3023,5.3022,5.3024,5.3025,5.3024,5.3023,5.3018,5.3018,5.3018,5.3018,0,5.3048,5.3046,5.305,5.3048,5.3048,5.3051,5.3049,5.3051,5.3048,5.305,5.305,5.3046,5.3046,5.3041,5.3039,5.3037,5.3042,5.3039,5.3043,5.3042,5.3048,5.3048,5.3067,5.307,5.3049,5.3049,5.3049,0,5.3055,5.3058,5.3058,5.3059,5.3059,5.3061,5.3061,5.3057,5.3058,5.3057,5.3059,5.3059,5.3059,5.3061,5.3056,5.3056,5.3053,5.306,5.3053,5.3055,5.3054,5.3054,5.3055,5.3062,5.3062,5.3062,5.3062,0,5.3068,5.3067,5.3069,5.3071,5.3073,5.3073,5.3074,5.3075,5.307,5.3071,5.3073,5.3073,5.3074,5.3074,5.3073,5.3071,5.3066,5.3065,5.3066,5.3068,5.3071,5.307,5.3047,5.3064,5.3064,5.3064,5.3064,5.3064,5.3078,5.3081,5.3082,5.3084,5.3085,5.3086,5.3088,5.3087,5.3088,5.3089,5.3086,5.3088,5.3087,5.3086,5.3084,5.3086,5.3082,5.3084,5.3084,5.3085,5.3087,5.3071,5.3085,5.3085,5.3085,5.3085,5.3085,0,5.3091,5.3092,5.3095,5.3096,5.3099,5.3095,5.3096,5.3098,5.31,5.31,5.3101,5.3103,5.3104,5.3101,5.3102,5.3104,5.3101,5.3104,5.3104,5.3103,5.3089,5.3088,5.3106,5.3106,5.3106,5.3106,5.3106,5.3106,5.3099,5.3104,5.3103,5.3109,5.3109,5.3113,5.3114,5.3114,5.3114,5.3118,5.3119,5.3118,5.3117,5.3117,5.3118,5.3117,5.3118,5.3121,5.312,5.3106,5.3104,5.3102,5.3102,5.3122,5.3122,5.3134,5.3134,5.3134]}]]